This demonstration page uses our WeatherBlox Daily Observations layout. Learn more.

Left ArrowRight Arrow

41.86663, -103.66717

Hourly Observations for July 25, 2018

Temp ( °F °C ) Dew Point ( °F °C ) Humidity (%) Winds ( mph kmh ) Pressure ( in mb ) Visibility ( mi km ) Precip ( " mm )
12:53 am 00:53 Clear 73 22.8 63 17.2 71 71 S 7 11 29.96 1015 10 16.0934 N/A
1:53 am 01:53 Clear 68 20 65 18.3 90 90 N N/A 29.95 1014 10 16.0934 N/A
2:53 am 02:53 Clear 70 21.1 63 17.2 79 79 NE 12 19 29.96 1015 10 16.0934 N/A
3:53 am 03:53 Clear 67 19.4 64 17.8 91 91 NE 12 19 29.98 1015 10 16.0934 N/A
4:53 am 04:53 Clear 67 19.4 64 17.8 91 91 ENE 17 28 30.01 1016 10 16.0934 N/A
5:53 am 05:53 Sunny 66 18.9 62 16.7 87 87 ENE 16 26 30.03 1017 10 16.0934 N/A
6:53 am 06:53 Sunny 66 18.9 57 13.9 73 73 ESE 8 13 30.07 1018 10 16.0934 N/A
7:53 am 07:53 Sunny 66 18.9 59 15 78 78 SSE 5 7 30.09 1019 10 16.0934 N/A
8:53 am 08:53 Sunny 69 20.6 59 15 70 70 VRB 3 6 30.1 1019 10 16.0934 N/A
9:53 am 09:53 Sunny 73 22.8 61 16.1 66 66 W 5 7 30.1 1019 10 16.0934 N/A
10:53 am 10:53 Sunny 75 23.9 62 16.7 64 64 WNW 10 17 30.09 1019 10 16.0934 N/A
11:53 am 11:53 Sunny 79 26.1 64 17.8 60 60 WNW 9 15 30.08 1019 10 16.0934 N/A
12:53 pm 12:53 Sunny 82 27.8 64 17.8 55 55 W 6 9 30.06 1018 10 16.0934 N/A
1:53 pm 13:53 Sunny 84 28.9 64 17.8 51 51 VRB 6 9 30.06 1018 10 16.0934 N/A
2:53 pm 14:53 Mostly Cloudy 81 27.2 64 17.8 57 57 ENE 12 19 30.05 1018 10 16.0934 N/A
3:53 pm 15:53 Sunny 76 24.4 60 15.6 58 58 NE 12 19 30.07 1018 10 16.0934 N/A
4:53 pm 16:53 Mostly Cloudy 74 23.3 61 16.1 64 64 ENE 9 15 30.1 1019 10 16.0934 N/A
5:53 pm 17:53 Partly Cloudy 73 22.8 64 17.8 74 74 SE 6 9 30.12 1020 10 16.0934 N/A
6:53 pm 18:53 Sunny 72 22.2 65 18.3 79 79 SE 7 11 30.12 1020 10 16.0934 N/A
7:53 pm 19:53 Sunny 70 21.1 66 18.9 87 87 N N/A 30.12 1020 10 16.0934 N/A
8:53 pm 20:53 Clear 69 20.6 67 19.4 93 93 N N/A 30.14 1021 10 16.0934 N/A
9:53 pm 21:53 Mostly Clear 68 20 66 18.9 93 93 WNW 3 6 30.16 1021 10 16.0934 N/A
10:53 pm 22:53 Cloudy 68 20 65 18.3 90 90 WSW 6 9 30.15 1021 10 16.0934 N/A
11:53 pm 23:53 Clear 66 18.9 66 18.9 100 100 N 6 9 30.14 1021 10 16.0934 0.01 0.254

Powered by AerisWeather